User: anonymous   Login
Location: Unspecified
(0.0000°N, 0.0000°E)
Time: 04:38:55
(UTC+01:00)
Language:

Cosmos 2219 - Orbit

View from above orbital plane
View from above orbital plane
View from above satellite
View from above satellite

Ground track
Ground track

The orbit data is extracted from the following two-line orbital elements,

1 22219U 92076A   17021.50968213  .00000299  00000-0  18294-3 0  9992
2 22219  71.0608 144.1015 0020059 254.1612 105.7299 14.13606050247487
Epoch (UTC): 21 January 2017 12:13:56
Eccentricity: 0.0020059
inclination: 71.0608°
perigee height: 832 km
apogee height: 861 km
right ascension of ascending node: 144.1015°
argument of perigee: 254.1612°
revolutions per day: 14.13606050
mean anomaly at epoch: 105.7299°
orbit number at epoch: 24748

The dashed part of the orbit path shows where the satellite is in the earth's shadow,  

DLR